RH
68 69 76 88 96 95 87 72 50 32 26 26 23 21 18 13 11 9 8 10 12 15 19 25 31 35 45 71 95 100 99 101 100 98 100 100 99 100 101 99 99 101 100 80 46 30 30 28 29 27 24 34 53 70 85 96 99 98 98 96 92 89 86
74 72 75 85 95 97 90 76 56 37 30 29 25 21 19 15 11 10 8 9 12 15 17 22 27 35 55 83 97 96 91 87 86 90 97 101 101 100 99 101 99 97 105 87 43 27 32 27 28 30 25 38 61 76 89 98 100 100 99 95 90 88 86
78 77 77 84 94 97 92 78 59 43 35 32 28 22 19 16 11 10 9 9 11 14 17 21 25 34 58 85 93 83 73 71 72 82 98 101 99 101 100 99 101 99 103 94 55 30 31 29 29 30 27 43 70 88 97 99 99 100 98 92 86 84 83
81 81 81 86 92 96 94 82 63 48 39 34 30 24 19 17 13 11 10 9 11 15 17 20 24 33 51 75 87 78 70 73 72 76 94 102 99 102 100 97 103 95 84 85 70 41 29 31 35 36 38 57 82 96 99 97 97 98 94 88 85 83 80
84 85 85 88 92 94 95 87 70 53 42 36 31 25 21 18 13 12 11 9 10 14 17 20 24 29 40 60 80 81 74 72 69 70 89 102 99 99 101 100 93 71 58 79 90 66 42 39 50 57 60 75 95 98 90 91 97 98 93 88 86 85 82
87 87 88 90 91 93 96 93 77 59 47 37 30 26 24 18 15 16 13 9 10 12 16 20 22 25 32 46 64 75 73 64 59 69 90 102 100 99 101 98 80 59 61 87 98 87 74 67 73 83 86 89 96 93 86 92 99 99 96 93 88 84 80
89 89 91 92 92 93 97 96 82 65 52 40 32 28 25 21 21 21 14 10 11 12 16 19 21 24 25 31 48 63 64 57 62 84 99 98 97 98 99 98 88 75 82 98 97 93 94 90 89 98 98 88 82 82 88 99 102 98 97 97 91 83 77
91 91 92 93 93 93 97 99 88 70 56 46 36 31 29 29 30 24 15 12 11 12 17 20 22 24 22 25 36 44 47 57 78 98 100 93 95 98 98 102 93 77 81 97 101 98 99 99 98 100 95 84 78 79 87 96 100 100 98 98 95 89 81
93 93 94 94 95 94 96 100 94 76 60 50 41 36 36 37 35 27 17 13 13 13 16 20 23 23 21 21 24 33 55 79 93 100 98 96 100 99 99 101 90 76 82 96 102 101 100 100 100 97 91 83 76 77 85 93 99 101 99 99 99 93 86
95 95 96 95 96 96 96 100 97 82 66 56 48 43 42 43 40 32 20 14 15 15 15 19 23 21 20 20 21 42 81 101 100 100 100 97 99 101 101 102 95 89 94 100 102 100 98 102 100 85 72 63 57 68 89 98 100 100 98 99 100 94 87
97 97 98 97 97 97 97 100 98 86 72 62 54 48 47 50 48 36 22 14 15 18 17 19 21 19 20 18 16 43 88 101 87 81 80 79 87 92 90 95 101 102 100 99 100 100 100 101 89 62 46 47 55 76 97 100 99 100 99 99 100 96 89
98 98 98 98 99 99 98 100 99 92 80 69 63 58 55 57 55 42 24 15 19 23 21 19 20 19 17 15 17 40 71 74 55 46 50 55 61 60 56 62 75 86 96 100 100 101 95 79 63 49 41 48 70 91 100 99 99 100 99 100 100 100 95
99 100 100 99 100 100 100 100 100 96 86 77 72 68 63 61 57 45 29 21 26 29 23 19 19 17 15 16 18 29 43 44 33 29 33 36 37 36 35 36 37 48 76 96 95 87 67 44 45 56 50 54 82 101 100 99 100 99 100 100 99 101 99
99 100 100 100 100 100 100 100 100 98 91 83 76 71 71 71 62 47 37 32 34 33 26 19 17 17 17 16 17 22 27 30 28 27 26 26 27 28 28 30 28 28 46 64 61 52 43 38 56 75 68 68 91 103 98 99 100 99 100 100 99 101 100
100 99 100 100 100 100 100 99 100 100 95 89 80 73 78 87 78 56 40 39 41 38 31 23 19 18 17 15 18 20 21 24 25 22 22 23 24 26 26 27 27 28 34 41 39 42 52 61 73 81 73 72 88 99 99 101 100 99 101 100 99 100 99
100 100 100 100 100 100 101 99 99 101 99 93 86 79 80 94 96 70 44 41 47 45 39 31 22 18 18 19 18 18 22 26 19 20 36 39 27 25 27 23 25 33 39 40 40 45 53 55 53 50 46 49 63 78 89 97 100 100 101 100 100 101 99
100 100 100 100 100 100 100 100 98 101 101 96 90 85 84 94 102 83 54 46 52 50 46 38 27 21 20 19 18 20 24 21 19 41 69 65 41 32 28 22 27 36 37 37 38 38 38 36 32 30 31 33 41 60 84 100 103 101 101 101 101 101 100
99 100 100 99 100 100 99 100 99 100 102 99 94 89 86 93 101 87 63 55 57 54 49 42 31 26 24 22 22 24 26 24 27 46 64 67 68 61 41 30 35 36 31 32 33 31 30 30 29 31 32 33 45 72 97 103 101 100 101 102 101 100 101
99 100 100 99 100 100 99 100 100 100 100 101 98 93 89 95 99 85 65 60 60 57 52 45 33 26 26 29 30 30 31 27 22 35 62 85 92 72 45 39 42 34 30 31 29 29 29 29 30 32 32 38 60 88 101 98 98 101 100 100 100 99 101
100 100 100 100 100 100 100 99 100 100 100 100 99 94 93 99 98 82 67 64 64 59 55 46 33 24 24 29 33 34 32 24 26 57 88 88 68 53 52 54 43 32 34 35 30 30 30 28 31 31 33 49 75 96 101 98 100 101 98 101 101 98 101
100 100 100 100 100 100 100 100 100 100 100 101 100 95 96 101 98 84 73 71 69 63 56 44 31 24 24 29 34 35 32 30 45 69 73 52 43 54 63 53 38 34 39 36 32 33 31 30 32 30 37 61 85 98 101 99 100 101 101 102 100 98 103
100 100 100 100 100 100 100 100 100 100 100 101 100 96 96 100 100 92 85 81 76 67 55 40 29 25 27 32 37 37 36 38 43 45 39 37 44 49 45 40 39 41 40 36 35 35 32 31 30 29 41 66 86 97 101 98 98 100 102 102 100 100 103
100 100 100 100 100 100 100 100 100 100 100 101 101 96 93 97 101 98 90 84 78 69 54 38 29 27 29 34 37 38 37 34 31 31 35 40 39 35 35 40 42 40 38 37 36 34 32 31 29 30 43 65 84 96 100 98 98 99 100 102 100 100 102
100 100 100 100 100 100 100 100 99 100 99 100 101 98 92 94 100 100 93 86 79 70 55 39 30 28 30 33 37 36 33 30 31 35 38 35 33 35 38 39 37 36 36 34 33 33 31 28 29 32 43 64 86 98 99 99 100 101 100 101 100 100 102
100 100 100 100 100 99 100 100 99 100 100 99 101 99 91 91 98 100 97 93 85 72 56 40 30 27 28 33 36 33 30 31 35 36 34 33 35 36 34 32 32 31 29 29 31 31 28 26 29 33 44 68 91 99 97 96 99 100 101 101 101 100 100
100 100 100 100 100 100 100 100 99 100 100 100 101 98 89 90 99 102 99 97 91 78 58 39 27 26 30 34 35 31 31 33 34 32 31 32 32 29 27 26 25 24 25 26 27 26 25 25 27 31 44 69 91 98 96 94 97 100 101 101 101 100 99
99 100 100 100 100 100 99 100 100 100 100 100 102 99 90 87 94 100 100 99 94 81 60 38 27 28 33 35 32 31 33 32 29 27 27 27 25 23 21 21 21 21 22 22 22 24 24 23 25 30 41 60 79 92 96 95 96 100 101 101 100 100 99
100 100 100 99 100 100 100 100 99 99 100 98 99 101 94 83 83 94 100 95 84 71 55 38 30 31 34 33 32 33 32 27 23 24 24 23 21 20 19 20 20 20 20 21 22 23 22 22 23 26 35 48 63 79 90 95 98 101 102 101 101 100 100
100 100 100 100 100 99 100 100 98 98 99 97 98 101 97 84 77 85 91 83 72 61 48 35 31 33 33 33 33 32 27 22 21 22 22 21 20 20 20 21 22 22 23 24 24 24 23 23 21 20 26 35 45 60 76 89 96 101 102 102 101 101 100
100 99 100 100 100 100 100 100 99 98 99 100 100 101 100 91 81 80 82 78 69 58 43 32 31 34 33 34 34 29 23 20 21 21 21 21 21 21 22 24 25 27 28 28 28 29 28 26 24 22 21 23 28 41 58 75 88 98 101 102 101 100 100
99 100 101 100 100 101 100 99 100 100 100 101 100 100 101 96 87 84 83 76 65 51 37 30 32 34 33 33 32 26 21 21 22 22 22 22 23 24 27 29 31 33 34 34 34 34 33 31 30 27 23 21 21 26 36 52 70 85 95 100 102 101 100
99 100 100 100 100 101 100 100 100 100 99 100 100 101 102 95 89 88 85 73 58 44 33 30 32 33 33 32 27 22 21 22 22 22 23 25 27 29 32 35 36 37 38 39 38 38 37 36 34 31 29 27 23 21 23 30 42 59 76 89 96 99 101
100 100 100 100 100 100 99 100 100 99 99 100 100 101 100 95 91 89 81 66 52 39 31 32 34 33 33 31 24 21 22 23 23 24 26 27 30 34 36 37 39 41 41 41 41 41 40 38 37 36 33 31 28 26 23 22 25 34 48 64 77 87 94
100 100 100 100 100 99 99 99 99 99 100 100 100 101 99 97 97 91 77 61 46 34 29 31 33 32 31 27 22 21 23 24 24 26 28 30 34 37 38 40 42 43 43 44 44 43 43 42 40 38 36 35 33 30 27 25 24 23 27 38 52 65 76
100 101 100 100 100 100 100 99 98 99 100 100 100 101 99 100 101 96 82 63 46 34 30 31 31 31 27 22 21 24 26 26 27 29 31 33 36 38 40 42 44 45 44 45 45 45 45 45 43 42 41 39 37 35 32 30 27 24 23 25 31 40 51
97 98 100 100 99 99 100 99 96 97 100 100 100 100 100 99 94 84 73 58 42 33 32 32 32 31 25 20 23 27 27 28 30 31 33 35 38 40 42 43 45 45 45 44 45 45 45 45 45 44 44 43 41 40 38 36 33 30 28 25 24 27 34
Wind_Speed
40 42 42 41 39 35 31 29 31 34 34 31 30 28 27 26 25 25 26 25 25 25 25 25 26 26 24 22 24 24 23 21 20 21 21 21 23 23 24 27 30 36 45 48 45 44 46 45 46 47 44 43 43 40 40 40 38 39 40 41 42 42 41
39 41 41 41 39 35 31 29 30 33 35 33 31 29 28 27 26 25 25 25 25 24 24 25 25 25 24 24 25 27 27 26 24 24 25 25 25 27 27 28 32 35 41 48 47 44 45 45 45 46 44 41 42 42 42 41 40 39 40 41 42 42 42
37 39 40 41 40 36 32 30 31 33 35 35 33 31 29 27 26 25 25 25 25 24 23 25 25 25 25 26 28 30 28 27 26 25 26 27 27 28 30 29 32 35 39 45 47 45 45 45 45 45 43 41 41 41 40 39 39 39 40 41 40 40 40
37 38 40 40 40 37 33 32 32 33 35 35 34 32 30 27 26 25 25 25 24 24 24 24 25 25 25 28 31 31 29 27 27 26 27 28 28 29 30 31 33 36 38 41 44 44 44 44 44 44 43 42 40 38 37 38 40 40 40 39 37 38 40
36 37 39 40 40 38 35 32 32 33 34 35 35 33 30 28 26 24 24 25 24 24 24 24 25 25 25 28 31 32 31 29 28 27 27 27 27 28 31 33 34 36 36 37 40 43 44 43 43 42 42 40 36 37 41 41 40 38 38 38 37 38 40
35 36 38 40 40 39 36 33 33 34 34 35 34 32 30 28 26 25 25 25 25 25 24 24 24 24 25 27 30 31 31 29 28 27 26 26 28 30 32 33 33 33 34 35 38 41 42 41 40 39 39 38 36 41 44 42 40 38 35 35 38 41 42
35 35 37 39 40 39 37 33 33 34 35 35 34 31 30 28 27 26 26 26 26 25 25 24 23 23 25 26 28 30 30 28 26 25 27 29 30 31 31 30 32 33 34 36 37 37 37 36 36 36 37 41 44 44 39 35 36 38 37 37 41 45 43
33 34 35 38 39 39 37 34 34 35 36 36 34 32 30 28 27 26 26 27 27 26 25 25 24 23 24 25 26 28 27 25 24 25 27 28 28 28 28 30 32 34 34 34 33 33 33 32 32 35 40 46 48 42 36 31 32 36 41 43 45 45 42
33 34 35 37 38 38 37 36 35 34 35 36 35 32 30 28 27 27 27 27 27 27 26 25 24 23 23 24 25 24 24 24 24 26 27 27 26 27 29 31 32 33 33 31 30 31 31 30 33 39 46 49 47 42 40 36 33 37 42 44 45 45 41
32 34 35 35 37 38 38 38 36 34 34 35 34 32 30 27 26 26 27 28 27 27 27 26 25 23 22 24 24 22 22 24 24 25 26 26 26 27 28 29 30 31 32 31 30 31 32 34 40 45 48 50 48 44 40 36 35 40 44 44 45 47 42
31 33 34 34 35 37 39 38 36 34 33 34 33 32 30 27 27 27 27 28 28 27 27 27 25 23 22 24 23 20 21 24 25 25 26 26 26 25 26 26 27 30 32 31 30 32 35 40 46 47 47 46 46 43 39 36 36 40 44 44 43 44 44
31 32 33 33 35 37 38 38 37 34 32 32 32 32 31 28 27 27 28 28 27 27 28 27 26 24 23 23 23 21 22 26 27 26 26 26 27 26 26 26 27 29 30 29 30 34 38 43 45 45 43 43 42 41 40 39 39 41 45 46 44 43 45
30 31 32 32 34 36 37 38 37 33 31 32 32 31 31 29 28 27 27 27 27 28 27 26 25 24 23 22 22 22 23 25 25 24 25 25 26 27 27 27 27 27 26 26 30 36 40 40 40 41 42 41 40 39 40 41 42 42 42 41 39 37 39
28 30 31 31 32 34 35 37 36 32 31 32 31 30 29 29 29 27 25 26 27 27 26 25 24 23 22 22 22 22 23 23 23 24 25 25 25 27 27 28 27 26 25 27 30 35 38 37 36 38 41 41 39 38 39 41 42 41 40 40 40 39 40
28 29 30 30 31 32 34 35 34 32 31 31 30 29 27 28 29 27 25 26 27 26 25 24 23 22 22 22 22 23 22 22 23 24 24 24 25 26 27 28 27 26 27 29 31 33 34 35 35 37 40 42 39 37 37 39 41 43 44 45 46 45 41
27 28 28 28 29 31 32 32 32 31 30 30 29 28 27 27 29 29 27 26 26 26 24 22 22 22 22 22 22 23 21 21 23 23 23 25 26 26 28 28 27 27 28 30 31 30 30 33 35 37 40 41 39 38 38 39 41 42 42 42 42 40 35
25 25 26 27 28 29 29 29 29 30 30 29 28 27 27 28 29 30 28 26 26 25 24 23 22 22 23 23 22 22 20 20 20 20 22 26 26 27 29 28 27 28 30 30 28 27 28 31 33 35 38 40 40 39 37 37 38 39 37 36 36 35 31
24 24 25 25 26 26 27 26 26 28 29 28 26 27 28 28 29 30 29 27 26 26 24 23 22 22 23 23 22 22 20 19 19 20 23 24 25 27 30 30 30 31 29 27 26 26 27 28 31 34 36 38 39 36 32 31 33 32 30 29 30 30 29
24 24 24 23 23 23 25 26 26 26 27 26 26 26 27 28 30 30 29 28 26 25 24 23 22 22 22 22 23 22 21 20 20 20 21 21 25 28 30 30 31 30 29 28 27 27 28 29 31 33 35 36 36 33 29 27 26 26 25 26 28 27 26
24 24 23 22 21 21 23 25 25 25 25 25 26 26 26 28 30 29 28 27 25 23 22 21 21 20 20 21 22 21 20 21 19 17 19 23 26 27 27 28 29 29 29 29 29 28 29 30 32 33 33 34 34 31 28 24 22 22 22 24 27 25 25
23 23 22 21 21 21 22 23 23 23 23 23 25 26 26 28 30 28 26 25 23 21 20 19 19 19 19 20 20 19 19 19 17 17 21 24 24 23 24 27 28 28 28 28 28 28 29 30 31 31 30 31 31 30 28 23 19 19 20 22 24 23 25
24 23 22 22 22 22 22 22 22 23 22 22 23 25 26 28 29 27 25 24 22 20 19 18 17 18 18 19 19 18 18 19 19 20 22 22 22 23 24 25 26 27 27 27 27 28 29 28 28 28 28 28 29 29 27 23 19 18 18 20 20 19 22
24 24 23 23 23 24 23 23 22 22 22 21 21 23 25 26 27 27 25 23 21 18 17 16 16 16 18 18 17 17 18 19 19 20 21 21 22 23 24 24 25 25 26 26 26 27 26 26 26 26 26 26 28 29 26 22 19 17 17 18 17 15 16
25 25 24 24 24 24 24 24 23 22 22 21 20 22 24 24 24 26 24 22 19 17 16 16 16 16 17 17 16 17 17 17 18 20 21 21 22 22 23 23 23 24 24 24 24 24 24 23 24 24 24 24 26 27 26 22 17 15 16 17 15 12 13
25 25 25 25 25 25 24 24 24 23 23 21 19 20 23 23 22 23 24 22 19 17 16 15 15 15 16 15 15 15 15 16 17 19 20 20 21 21 21 21 21 21 22 21 22 22 22 22 22 21 21 21 22 24 25 22 17 13 12 12 11 9 10
25 25 26 26 26 26 25 25 24 24 23 22 21 21 22 23 21 21 21 21 19 17 15 13 14 14 14 14 13 13 14 15 16 17 18 18 18 18 18 18 18 18 18 18 19 20 20 20 21 19 18 17 18 20 22 22 19 15 11 8 8 7 8
25 26 26 26 26 26 26 25 25 25 24 23 23 23 23 24 23 21 20 21 20 18 15 13 13 13 13 12 12 12 12 14 14 15 14 14 14 14 14 15 15 15 16 16 17 17 17 18 18 17 16 15 15 17 19 20 20 17 14 10 7 6 6
24 25 25 25 25 25 26 26 26 25 24 23 23 23 23 24 24 24 25 25 23 19 15 13 12 12 11 11 11 10 11 12 11 11 11 10 10 10 11 11 12 12 13 13 14 15 16 16 16 15 15 15 15 16 17 18 19 17 15 13 9 6 4
20 22 22 22 23 24 25 26 24 22 21 21 22 22 23 23 24 25 26 25 21 17 14 13 12 12 10 10 9 9 9 9 7 7 7 6 7 7 8 8 9 10 11 13 15 17 18 19 18 17 17 16 16 17 17 18 20 20 18 15 13 11 9
17 18 18 20 22 22 23 21 18 17 19 19 20 21 21 21 22 23 23 22 20 17 15 14 12 11 10 9 8 8 7 6 4 4 4 4 5 6 7 8 9 11 13 15 16 18 20 21 22 22 21 20 19 18 18 18 20 22 22 20 18 16 15
15 15 16 18 19 19 19 19 17 17 18 18 17 18 20 21 22 22 22 21 19 18 17 14 12 11 10 8 8 7 6 4 2 1 0 3 5 6 7 9 10 13 14 15 16 18 20 22 24 24 25 25 23 21 20 19 20 21 23 24 24 23 20
13 14 15 17 17 16 15 16 18 18 17 16 15 15 17 20 21 21 21 21 19 18 17 15 13 12 10 9 8 8 6 4 3 3 3 4 6 7 8 9 12 14 14 15 16 18 21 22 24 25 26 27 27 26 25 23 22 22 22 24 25 25 25
12 14 15 16 17 17 14 11 13 16 16 14 13 13 15 19 21 21 22 23 21 19 18 15 14 13 12 10 10 9 8 6 6 5 5 5 6 7 8 10 12 13 14 15 17 19 21 23 24 25 26 27 28 29 29 28 27 25 24 24 24 25 26
8 12 16 17 17 18 17 11 9 13 15 14 14 16 17 20 20 20 22 23 20 18 17 16 16 15 13 12 12 11 9 8 7 6 5 5 6 7 8 10 11 12 12 14 16 18 20 23 24 25 27 28 28 29 30 31 31 30 28 27 26 25 25
6 8 15 18 16 18 19 15 10 12 16 17 18 20 22 24 24 24 25 25 21 18 17 17 17 16 14 14 14 12 11 9 8 7 6 5 5 6 7 8 9 10 11 13 15 17 19 21 23 25 26 27 28 30 31 32 32 32 32 30 28 27 25
6 6 13 18 16 16 19 17 12 13 19 21 21 23 27 29 30 30 29 26 22 21 19 18 17 16 16 16 15 13 12 10 8 7 6 5 4 4 5 6 8 9 11 12 14 17 18 20 22 23 25 26 27 29 30 31 32 32 32 32 31 29 28
Wind_Direction
262 260 260 260 261 260 257 253 252 251 251 252 254 257 260 262 263 266 267 264 259 256 255 255 258 263 265 261 255 256 260 261 263 267 270 271 272 273 277 282 286 285 288 297 302 304 308 312 314 316 319 321 321 323 324 321 319 318 317 316 316 315 314
263 261 260 260 260 259 256 252 250 250 251 253 254 255 259 260 261 265 266 265 260 257 256 256 259 262 264 260 257 260 263 265 269 274 277 275 274 278 283 286 289 288 288 295 301 303 306 311 313 315 318 321 321 322 323 320 318 318 316 315 314 313 312
264 262 261 260 259 258 255 251 248 248 251 253 253 254 257 259 261 264 266 266 263 260 258 257 259 262 262 261 262 266 270 273 278 281 279 279 280 283 286 288 291 291 290 293 297 301 305 310 313 314 318 321 320 319 319 316 314 312 312 312 312 311 310
265 262 260 259 258 256 254 250 246 247 249 252 253 254 257 260 262 264 267 268 265 261 258 258 259 261 261 261 264 270 274 278 281 282 278 278 280 282 287 292 293 292 291 291 294 300 305 309 311 314 318 321 319 315 312 310 310 309 310 312 312 312 312
265 262 260 259 257 256 255 252 247 246 248 251 253 254 257 260 262 265 268 269 266 262 258 258 259 261 262 262 264 269 274 278 280 278 276 278 283 287 291 294 293 291 292 292 294 299 305 309 311 313 316 317 312 309 309 309 311 311 312 314 314 314 314
266 264 261 261 259 256 255 254 249 247 248 250 252 255 257 259 262 266 269 269 267 263 259 259 260 262 263 263 265 268 274 278 278 276 279 285 289 291 292 292 292 293 296 295 294 297 302 306 308 308 310 310 306 306 310 312 312 312 311 312 312 313 313
268 266 263 263 261 256 255 254 250 247 248 247 249 252 255 259 262 265 268 269 268 265 261 260 260 262 266 267 267 271 274 275 274 275 281 286 287 288 290 290 293 295 295 294 293 295 297 300 303 302 302 305 306 307 309 310 309 310 309 307 309 312 313
269 267 264 263 262 258 256 254 249 245 245 245 246 249 252 258 263 265 267 268 268 266 263 262 262 264 268 271 272 273 272 270 274 280 283 285 286 288 289 288 291 294 293 291 290 292 294 294 296 298 299 303 307 307 306 306 304 304 305 306 308 311 312
269 266 263 264 264 260 255 253 250 245 243 244 245 248 252 257 262 265 266 267 268 268 266 263 264 266 271 276 276 272 268 269 276 283 286 289 289 288 288 288 289 292 292 291 289 288 291 292 291 296 300 302 304 304 304 306 303 300 303 305 306 307 308
269 265 263 264 264 261 256 253 251 246 243 243 244 248 252 257 261 263 264 266 267 268 268 266 265 268 274 277 275 269 266 267 270 274 277 282 285 284 285 286 287 289 290 289 288 288 291 292 291 295 300 300 302 304 303 303 302 301 303 305 304 304 305
271 267 266 265 263 262 258 254 251 247 243 242 244 247 251 255 260 262 262 264 267 268 269 269 268 271 274 275 275 272 266 265 265 268 270 273 276 276 278 281 283 285 286 286 286 288 289 289 291 296 301 301 303 306 305 301 300 301 303 303 300 299 301
273 270 268 266 262 260 259 256 253 248 243 241 243 247 251 253 255 259 260 263 266 268 269 269 270 273 275 276 279 275 269 267 268 270 272 273 276 276 277 279 279 280 283 285 285 285 286 288 294 299 301 303 306 307 304 300 300 301 301 299 294 291 293
274 271 269 267 263 261 260 257 253 248 243 241 241 245 251 253 253 255 258 261 265 267 268 269 270 274 277 279 281 279 275 275 275 275 276 277 278 280 280 283 284 282 283 283 282 284 288 294 301 303 303 307 310 305 300 300 301 302 298 294 290 288 289
275 273 271 269 266 263 261 257 254 249 243 241 240 241 246 252 255 257 258 260 264 265 267 269 271 274 278 281 284 285 282 281 280 279 280 280 279 282 285 288 289 289 289 288 288 292 298 303 306 305 304 305 305 300 298 301 301 298 293 290 288 287 288
275 274 272 270 268 263 260 259 256 250 245 241 240 241 241 244 250 256 259 260 264 267 268 270 273 274 278 283 286 287 286 284 284 283 282 282 282 286 292 293 295 298 298 297 298 299 303 305 303 301 300 299 298 296 295 293 290 288 288 290 290 290 290
275 275 273 271 267 262 259 260 257 252 247 242 239 240 239 237 241 250 257 261 265 269 270 273 275 276 279 284 286 288 289 286 286 287 286 286 288 292 296 298 301 302 299 297 299 301 301 301 299 297 297 297 295 293 292 288 287 287 288 291 293 293 294
277 277 275 271 267 262 260 260 258 253 248 243 238 237 236 234 236 244 253 260 264 269 272 273 277 278 280 283 286 289 290 287 286 287 283 286 293 296 299 303 304 300 297 299 302 304 301 298 298 298 298 297 296 295 295 293 292 292 292 294 296 296 293
276 275 274 271 268 265 262 260 259 254 249 244 238 235 234 233 235 240 249 257 262 267 271 273 276 277 279 283 288 290 290 287 283 281 283 290 296 297 301 306 304 301 304 309 310 309 305 301 300 300 299 299 299 300 300 297 296 298 298 296 296 296 295
273 271 272 272 269 266 261 259 257 254 250 244 237 234 232 232 234 239 247 254 259 264 268 271 273 274 276 281 286 288 286 283 282 286 291 292 291 295 302 304 304 308 316 319 318 315 311 308 306 304 303 302 303 304 306 306 304 303 301 296 294 294 292
271 270 272 272 269 264 259 256 255 252 249 244 236 231 229 230 234 239 246 254 259 262 267 270 272 274 277 279 282 282 280 281 286 288 286 286 289 297 302 302 308 317 320 319 319 316 314 312 310 307 306 305 308 313 316 316 311 305 299 294 294 294 287
270 269 270 271 268 264 259 256 255 253 248 243 234 226 223 227 234 240 248 254 258 262 266 270 271 273 278 278 277 278 278 281 284 280 281 290 297 299 300 304 313 319 318 317 318 315 313 312 309 308 309 310 316 321 323 322 319 312 303 294 293 294 290
270 268 268 268 267 264 261 257 256 254 249 243 235 225 219 223 233 241 248 253 257 262 266 269 270 273 276 275 274 277 279 280 283 287 292 298 299 298 304 311 315 316 317 318 316 313 312 310 309 312 315 319 323 325 325 327 327 319 308 299 297 298 296
268 267 265 265 265 264 262 258 255 254 251 244 235 224 217 219 229 239 246 251 255 261 265 267 269 270 271 272 273 276 280 284 290 297 300 299 300 306 313 314 314 316 318 317 313 311 310 311 314 319 323 326 328 327 329 334 333 323 313 305 304 307 305
266 265 264 265 264 263 262 259 255 253 251 246 234 222 215 215 224 235 244 249 253 259 263 263 264 265 267 270 275 278 284 292 298 300 302 303 307 313 315 314 317 319 317 314 312 311 312 316 322 326 329 331 331 330 335 342 339 326 315 308 307 316 317
267 266 266 265 264 263 261 260 257 253 249 245 235 222 215 213 218 230 242 248 250 255 259 257 256 260 266 272 278 283 290 297 300 301 304 308 311 315 318 320 323 321 317 316 315 315 318 325 329 331 333 333 332 333 339 346 348 338 321 309 311 317 318
269 268 266 264 263 262 260 259 258 254 248 242 236 225 215 209 210 221 236 247 251 253 254 252 253 261 270 275 280 286 293 298 301 302 305 310 315 321 326 328 328 326 324 324 323 324 330 334 334 336 336 333 337 342 345 350 357 358 349 333 325 325 324
270 267 265 264 262 261 259 258 255 252 247 239 234 228 216 207 204 207 219 232 242 247 250 252 256 262 268 273 278 286 293 298 301 304 308 317 326 333 337 340 342 342 339 337 335 338 343 343 341 341 342 341 346 354 357 360 5 8 9 5 353 338 331
273 270 267 266 264 261 258 254 251 252 251 244 237 231 219 209 204 203 210 223 233 239 243 247 253 258 262 268 276 287 294 296 300 309 319 332 342 350 356 356 355 356 354 353 354 358 2 2 358 355 355 355 359 4 9 14 18 21 23 24 24 25 13
275 272 270 269 266 262 256 254 256 261 263 254 244 235 224 212 208 208 215 225 232 234 234 238 246 251 253 258 270 283 290 294 305 320 333 350 6 16 22 19 17 22 23 20 20 21 22 22 20 16 12 9 10 13 16 21 28 32 34 37 42 47 46
275 271 267 265 264 263 261 263 267 270 265 256 246 237 227 217 213 215 219 225 228 227 229 233 238 240 240 246 261 272 277 287 310 327 340 16 43 50 51 48 45 44 39 33 30 30 30 30 30 29 27 24 22 21 22 25 31 36 38 41 45 50 52
277 273 267 262 261 261 261 263 264 259 256 253 246 235 224 215 212 213 218 221 221 220 223 226 227 227 227 231 244 251 250 257 272 278 15 77 78 76 69 64 58 52 46 40 36 35 35 34 33 33 33 33 31 30 30 31 34 38 42 44 45 48 51
274 270 265 260 260 260 256 253 252 250 248 246 240 228 216 210 208 208 211 215 215 214 218 219 216 215 214 217 225 227 216 207 204 183 139 108 95 86 76 68 61 55 49 43 40 40 40 38 36 34 34 36 36 35 35 36 36 38 42 46 48 49 50
264 257 250 246 250 255 254 246 239 239 240 236 224 209 200 202 205 204 206 210 210 207 209 210 206 205 206 207 212 210 196 188 186 167 139 119 103 86 73 66 60 56 50 45 44 44 43 42 40 38 36 36 37 37 37 38 38 39 40 43 47 49 49
268 247 236 230 231 239 247 248 227 220 222 216 202 190 187 194 198 198 203 211 210 203 202 202 199 198 198 199 202 199 188 183 180 164 143 123 102 80 68 65 63 58 52 48 46 45 44 43 41 39 37 37 37 38 38 38 39 39 39 40 43 47 49
291 239 223 219 216 219 230 241 230 203 199 197 190 183 181 185 187 189 199 207 206 199 199 198 195 194 193 193 194 191 183 180 176 163 145 122 99 79 68 68 66 58 52 49 47 46 45 43 41 39 38 38 37 37 38 38 38 39 38 39 40 42 46
297 237 206 206 208 207 212 225 227 197 186 188 187 181 181 186 189 192 199 202 198 192 192 192 191 191 190 190 191 187 181 178 172 162 147 125 103 86 73 70 67 58 50 47 47 47 45 44 42 40 39 38 38 38 39 39 40 40 40 39 39 40 41